Volver al catálogo

OPTUS A1

AUSSAT 1

ActivoComunicacionesGEO
NORAD 15993·PAYLOAD·🇦🇺 Australia

Lanzado Aug 27, 1985 desde Cape Canaveral Space Force Station

Loading…

TLE

ActualizadoSource: Space-Track

Época: Sep 13, 2026, 23:59 UTC

1 15993U 85076B   26256.99999641 -.00000263  00000-0  00000-0 0  9992
2 15993  13.2174 338.2093 0002334 352.0202 357.8264  0.99768554120473

Sigue OPTUS A1 en tiempo real con AllMySat

Download on the App Store